This is the latest recevied weather packets stored in our database for station/object SP6RGZ-1. If no packets are shown the sender has not sent any weather packets the latest 10 day(s).
| Time | Temp. | Humidity | Pressure | Rain* | Wind** | Luminosity | Snow |
|---|---|---|---|---|---|---|---|
| 1777873502 | 16.67° C | 54% | 994.4 hPa | - | - | - | - |
| 1777872602 | 16.11° C | 54% | 994.4 hPa | - | - | - | - |
| 1777871702 | 15.56° C | 53% | 994.4 hPa | - | - | - | - |
| 1777870802 | 15.56° C | 51% | 994.5 hPa | - | - | - | - |
| 1777869902 | 15.56° C | 51% | 994.3 hPa | - | - | - | - |
| 1777869002 | 15° C | 51% | 994.4 hPa | - | - | - | - |
| 1777868102 | 14.44° C | 53% | 994.6 hPa | - | - | - | - |
| 1777867202 | 13.89° C | 54% | 994.2 hPa | - | - | - | - |
| 1777866302 | 13.33° C | 57% | 994.1 hPa | - | - | - | - |
| 1777865402 | 12.22° C | 59% | 994.1 hPa | - | - | - | - |
| 1777864502 | 11.67° C | 60% | 994 hPa | - | - | - | - |
| 1777863602 | 12.22° C | 60% | 993.8 hPa | - | - | - | - |
| 1777862702 | 12.22° C | 60% | 993.8 hPa | - | - | - | - |
| 1777861802 | 12.22° C | 61% | 993.8 hPa | - | - | - | - |
| 1777860902 | 12.22° C | 61% | 993.8 hPa | - | - | - | - |
| 1777860002 | 12.22° C | 61% | 993.7 hPa | - | - | - | - |
| 1777859103 | 12.78° C | 60% | 993.7 hPa | - | - | - | - |
| 1777858203 | 12.78° C | 61% | 993.6 hPa | - | - | - | - |
| 1777857303 | 12.78° C | 62% | 993.7 hPa | - | - | - | - |
| 1777856402 | 12.78° C | 62% | 993.8 hPa | - | - | - | - |
| 1777855502 | 12.78° C | 63% | 993.9 hPa | - | - | - | - |
| 1777854602 | 12.78° C | 63% | 993.8 hPa | - | - | - | - |
| 1777853702 | 12.78° C | 63% | 994 hPa | - | - | - | - |
| 1777852802 | 13.33° C | 63% | 993.8 hPa | - | - | - | - |
| 1777851902 | 13.33° C | 63% | 994 hPa | - | - | - | - |
* Rain since midnight (hover to see other rain measurements)
** Current wind speed in m/s (hover to see current wind gust speed)